Terminal Aerodrome Forecast
Issued by NWS Des Moines, IA

Home | Current Version | Previous Version | Text Only | Print | Product List | Glossary On
Versions: 1 2 3 4 5 6 7 8 9 10 11 12 13 14 15 16 17 18 19 20 21 22 23 24 25 26 27 28 29 30 31 32 33 34 35 36 37 38 39 40 41 42 43 44 45 46
000
FTUS43 KDMX 220613 AAA
TAFALO
TAF AMD
KALO 220613Z 2206/2306 30011KT P6SM -RA SCT030 OVC050
     FM221000 32011KT P6SM VCSH OVC100
     FM221200 31005KT P6SM BKN100 OVC150
     FM221700 32012G18KT P6SM BKN230
     FM222300 30004KT P6SM FEW250=

USA.gov is the U.S. government's official web portal to all federal, state and local government web resources and services.